LZB8771 LBSF-HECA

Flight info

Callsign LZB8771
Flight time 2h 9m
Altitude 35000
Route OMENO Y505 NIKTI UN127 LMO UL618 MES UN139 KUMBI L612 BLT A16 CVO
Aircraft A320/M-SDE3FGHIRWY/LB1

Departure

Time 2026-05-07 07:31
Airport Sofia Airport (LBSF)

Arrival

Time 2026-05-07 09:40
Airport Cairo International Airport (HECA)
Time Latitude Longitude Altitude Speed Heading
2026-05-07 07:01 42.69074 23.41298 1757 ft 0 kts 70°
2026-05-07 07:16 42.69072 23.41293 1757 ft 2 kts 70°
2026-05-07 07:17 42.69067 23.41274 1757 ft 2 kts 70°
2026-05-07 07:17 42.69062 23.41254 1757 ft 2 kts 70°
2026-05-07 07:17 42.69055 23.41237 1757 ft 2 kts 38°
2026-05-07 07:17 42.69042 23.41227 1757 ft 2 kts 10°
2026-05-07 07:18 42.69027 23.41228 1757 ft 2 kts 341°
2026-05-07 07:18 42.69022 23.41230 1757 ft 0 kts 333°
2026-05-07 07:20 42.69024 23.41229 1757 ft 0 kts 333°
2026-05-07 07:20 42.69034 23.41224 1757 ft 2 kts 340°
2026-05-07 07:20 42.69061 23.41212 1757 ft 5 kts 343°
2026-05-07 07:21 42.69103 23.41195 1757 ft 6 kts 341°
2026-05-07 07:21 42.69152 23.41173 1757 ft 7 kts 342°
2026-05-07 07:21 42.69209 23.41154 1757 ft 8 kts 355°
2026-05-07 07:21 42.69273 23.41162 1757 ft 9 kts 10°
2026-05-07 07:22 42.69343 23.41181 1757 ft 10 kts 12°
2026-05-07 07:22 42.69416 23.41203 1757 ft 11 kts 12°
2026-05-07 07:22 42.69478 23.41262 1757 ft 11 kts 73°
2026-05-07 07:22 42.69477 23.41374 1757 ft 12 kts 94°
2026-05-07 07:23 42.69469 23.41500 1757 ft 14 kts 94°
2026-05-07 07:23 42.69458 23.41676 1757 ft 22 kts 94°
2026-05-07 07:23 42.69444 23.41912 1757 ft 28 kts 94°
2026-05-07 07:23 42.69430 23.42167 1757 ft 24 kts 94°
2026-05-07 07:24 42.69418 23.42368 1757 ft 19 kts 94°
2026-05-07 07:24 42.69407 23.42552 1757 ft 19 kts 95°
2026-05-07 07:24 42.69403 23.42710 1757 ft 12 kts 71°
2026-05-07 07:24 42.69470 23.42748 1757 ft 7 kts 333°
2026-05-07 07:25 42.69475 23.42743 1757 ft 0 kts 324°
2026-05-07 07:29 42.69479 23.42738 1757 ft 2 kts 319°
2026-05-07 07:29 42.69500 23.42707 1757 ft 6 kts 307°
2026-05-07 07:29 42.69534 23.42643 1757 ft 10 kts 310°
2026-05-07 07:29 42.69590 23.42574 1757 ft 7 kts 303°
2026-05-07 07:30 42.69595 23.42545 1757 ft 0 kts 276°
2026-05-07 07:30 42.69600 23.42487 1757 ft 31 kts 275°
2026-05-07 07:30 42.69641 23.41808 1757 ft 109 kts 274°
2026-05-07 07:30 42.69718 23.40471 1774 ft 169 kts 275°
2026-05-07 07:31 42.69843 23.38845 2361 ft 177 kts 276°
2026-05-07 07:31 42.70148 23.37243 3085 ft 179 kts 305°
2026-05-07 07:31 42.70967 23.36049 3941 ft 174 kts 313°
2026-05-07 07:31 42.71881 23.35017 4570 ft 175 kts 338°
2026-05-07 07:32 42.73051 23.34721 5195 ft 174 kts 356°
2026-05-07 07:32 42.74258 23.34665 5748 ft 177 kts 357°
2026-05-07 07:32 42.75504 23.34587 6309 ft 180 kts 355°
2026-05-07 07:32 42.76743 23.34448 6857 ft 183 kts 353°
2026-05-07 07:33 42.78053 23.34250 7293 ft 196 kts 352°
2026-05-07 07:33 42.79458 23.34008 7667 ft 212 kts 351°
2026-05-07 07:33 42.80973 23.33733 8044 ft 229 kts 351°
2026-05-07 07:33 42.82605 23.33431 8329 ft 251 kts 351°
2026-05-07 07:34 42.84414 23.33096 8740 ft 270 kts 351°
2026-05-07 07:34 42.86349 23.33049 9166 ft 288 kts 12°
2026-05-07 07:34 42.88166 23.34186 9805 ft 295 kts 40°
2026-05-07 07:34 42.89467 23.36304 10512 ft 298 kts 65°
2026-05-07 07:35 42.89990 23.39066 10966 ft 309 kts 91°
2026-05-07 07:35 42.89537 23.41919 11367 ft 319 kts 118°
2026-05-07 07:35 42.88100 23.44273 11742 ft 331 kts 146°
2026-05-07 07:35 42.85994 23.45640 12163 ft 342 kts 160°
2026-05-07 07:36 42.83767 23.46852 12753 ft 350 kts 158°
2026-05-07 07:36 42.81528 23.48083 13370 ft 356 kts 160°
2026-05-07 07:36 42.79160 23.49274 13902 ft 364 kts 161°
2026-05-07 07:36 42.76773 23.50463 14514 ft 369 kts 161°
2026-05-07 07:37 42.74360 23.51675 15126 ft 374 kts 161°
2026-05-07 07:37 42.71929 23.52906 15723 ft 378 kts 161°
2026-05-07 07:37 42.69444 23.54171 16308 ft 383 kts 160°
2026-05-07 07:37 42.66933 23.55452 16876 ft 388 kts 160°
2026-05-07 07:38 42.64412 23.56742 17424 ft 393 kts 160°
2026-05-07 07:38 42.61847 23.58057 17950 ft 397 kts 160°
2026-05-07 07:38 42.59267 23.59378 18480 ft 402 kts 161°
2026-05-07 07:38 42.56618 23.60735 19046 ft 405 kts 161°
2026-05-07 07:39 42.53987 23.62082 19596 ft 408 kts 161°
2026-05-07 07:39 42.51318 23.63446 20112 ft 412 kts 161°
2026-05-07 07:39 42.48657 23.64806 20622 ft 416 kts 161°
2026-05-07 07:39 42.45912 23.66213 21133 ft 419 kts 162°
2026-05-07 07:40 42.43197 23.67614 21636 ft 422 kts 162°
2026-05-07 07:40 42.40419 23.69039 22129 ft 426 kts 162°
2026-05-07 07:40 42.37676 23.70442 22601 ft 429 kts 162°
2026-05-07 07:40 42.34853 23.71881 23065 ft 432 kts 162°
2026-05-07 07:41 42.32057 23.73303 23524 ft 435 kts 162°
2026-05-07 07:41 42.29622 23.74540 23926 ft 438 kts 162°
2026-05-07 07:41 42.27034 23.75853 24343 ft 440 kts 162°
2026-05-07 07:41 42.24198 23.77290 24777 ft 443 kts 162°
2026-05-07 07:42 42.21310 23.78750 25181 ft 446 kts 162°
2026-05-07 07:42 42.18407 23.80218 25563 ft 449 kts 162°
2026-05-07 07:42 42.15451 23.81711 25966 ft 452 kts 162°
2026-05-07 07:42 42.12530 23.83186 26352 ft 454 kts 162°
2026-05-07 07:43 42.09557 23.84686 26714 ft 457 kts 162°
2026-05-07 07:43 42.06568 23.86191 27083 ft 459 kts 162°
2026-05-07 07:43 42.03598 23.87686 27438 ft 461 kts 162°
2026-05-07 07:43 42.00588 23.89200 27826 ft 462 kts 162°
2026-05-07 07:44 41.97598 23.90702 28326 ft 460 kts 162°
2026-05-07 07:44 41.94611 23.92202 28841 ft 458 kts 162°
2026-05-07 07:44 41.91626 23.93699 29321 ft 457 kts 162°
2026-05-07 07:44 41.88635 23.95198 29796 ft 455 kts 162°
2026-05-07 07:45 41.85670 23.96678 30240 ft 455 kts 162°
2026-05-07 07:45 41.82721 23.98146 30693 ft 453 kts 162°
2026-05-07 07:45 41.79786 23.99609 31138 ft 452 kts 162°
2026-05-07 07:45 41.76856 24.01070 31572 ft 451 kts 162°
2026-05-07 07:46 41.73906 24.02543 31991 ft 450 kts 162°
2026-05-07 07:46 41.70978 24.04004 32423 ft 449 kts 163°
2026-05-07 07:46 41.68062 24.05458 32826 ft 447 kts 163°
2026-05-07 07:46 41.65162 24.06903 33212 ft 446 kts 163°
2026-05-07 07:47 41.62268 24.08339 33580 ft 445 kts 163°
2026-05-07 07:47 41.59380 24.09785 33864 ft 446 kts 162°
2026-05-07 07:47 41.56503 24.11408 34133 ft 448 kts 159°
2026-05-07 07:47 41.53706 24.13255 34465 ft 449 kts 155°
2026-05-07 07:48 41.51009 24.15320 34755 ft 451 kts 151°
2026-05-07 07:48 41.48376 24.17614 35015 ft 453 kts 149°
2026-05-07 07:48 41.45764 24.19964 35142 ft 455 kts 149°
2026-05-07 07:49 41.40537 24.24666 35096 ft 456 kts 149°
2026-05-07 07:49 41.35260 24.29382 35140 ft 457 kts 149°
2026-05-07 07:50 41.29983 24.34083 35139 ft 457 kts 149°
2026-05-07 07:50 41.24699 24.38777 35123 ft 458 kts 149°
2026-05-07 07:51 41.19365 24.43294 35115 ft 457 kts 153°
2026-05-07 07:51 41.13710 24.47087 35109 ft 456 kts 157°
2026-05-07 07:52 41.07989 24.50734 35104 ft 457 kts 157°
2026-05-07 07:52 41.02275 24.54387 35106 ft 457 kts 157°
2026-05-07 07:53 40.96552 24.58049 35108 ft 458 kts 157°
2026-05-07 07:53 40.90845 24.61683 35104 ft 458 kts 157°
2026-05-07 07:54 40.85104 24.65316 35145 ft 457 kts 158°
2026-05-07 07:54 40.79359 24.68984 35110 ft 458 kts 158°
2026-05-07 07:55 40.73645 24.72618 35102 ft 458 kts 158°
2026-05-07 07:55 40.67942 24.76238 35101 ft 458 kts 158°
2026-05-07 07:56 40.62206 24.79862 35101 ft 457 kts 158°
2026-05-07 07:56 40.56485 24.83468 35101 ft 457 kts 158°
2026-05-07 07:57 40.50764 24.87051 35099 ft 457 kts 158°
2026-05-07 07:57 40.45020 24.90650 35099 ft 456 kts 158°
2026-05-07 07:58 40.39315 24.94222 35099 ft 457 kts 158°
2026-05-07 07:58 40.33572 24.97812 35100 ft 457 kts 157°
2026-05-07 07:59 40.27860 25.01382 35100 ft 456 kts 158°
2026-05-07 07:59 40.22138 25.04949 35102 ft 456 kts 158°
2026-05-07 08:00 40.16431 25.08500 35103 ft 456 kts 157°
2026-05-07 08:00 40.10710 25.12053 35101 ft 455 kts 157°
2026-05-07 08:01 40.04969 25.15619 35102 ft 456 kts 157°
2026-05-07 08:01 39.99231 25.19174 35107 ft 456 kts 157°
2026-05-07 08:02 39.93497 25.22669 35105 ft 456 kts 159°
2026-05-07 08:02 39.87577 25.25471 35104 ft 455 kts 166°
2026-05-07 08:03 39.81519 25.27923 35103 ft 454 kts 166°
2026-05-07 08:03 39.75523 25.30362 35102 ft 454 kts 166°
2026-05-07 08:04 39.69508 25.32812 35103 ft 455 kts 166°
2026-05-07 08:04 39.63475 25.35272 35101 ft 455 kts 166°
2026-05-07 08:05 39.57423 25.37734 35102 ft 456 kts 166°
2026-05-07 08:05 39.51404 25.40181 35103 ft 456 kts 166°
2026-05-07 08:06 39.45339 25.42640 35105 ft 456 kts 166°
2026-05-07 08:06 39.39267 25.45098 35103 ft 457 kts 166°
2026-05-07 08:07 39.33209 25.47547 35105 ft 458 kts 165°
2026-05-07 08:07 39.27135 25.49999 35105 ft 458 kts 166°
2026-05-07 08:08 39.21081 25.52436 35108 ft 459 kts 166°
2026-05-07 08:08 39.14977 25.54891 35109 ft 460 kts 165°
2026-05-07 08:09 39.08856 25.57349 35108 ft 460 kts 166°
2026-05-07 08:09 39.02757 25.59792 35111 ft 460 kts 166°
2026-05-07 08:10 38.96672 25.62225 35089 ft 462 kts 166°
2026-05-07 08:10 38.90510 25.64686 35108 ft 462 kts 166°
2026-05-07 08:11 38.84405 25.67135 35213 ft 463 kts 166°
2026-05-07 08:11 38.78238 25.69602 35144 ft 462 kts 166°
2026-05-07 08:12 38.72125 25.72037 35122 ft 461 kts 166°
2026-05-07 08:12 38.66027 25.74461 35119 ft 462 kts 166°
2026-05-07 08:13 38.59883 25.76889 35124 ft 462 kts 166°
2026-05-07 08:13 38.54559 25.78986 35126 ft 462 kts 166°
2026-05-07 08:14 38.49541 25.80962 35131 ft 463 kts 166°
2026-05-07 08:14 38.43398 25.83384 35140 ft 464 kts 166°
2026-05-07 08:15 38.37241 25.85808 35140 ft 463 kts 166°
2026-05-07 08:15 38.31086 25.88218 35144 ft 464 kts 166°
2026-05-07 08:16 38.24942 25.90645 35142 ft 464 kts 164°
2026-05-07 08:16 38.18834 25.93400 35142 ft 465 kts 163°
2026-05-07 08:17 38.12782 25.96163 35144 ft 465 kts 163°
2026-05-07 08:17 38.06691 25.98936 35142 ft 465 kts 163°
2026-05-07 08:18 38.00625 26.01698 35135 ft 464 kts 163°
2026-05-07 08:18 37.94517 26.04472 35129 ft 465 kts 163°
2026-05-07 08:19 37.88428 26.07235 35122 ft 464 kts 163°
2026-05-07 08:19 37.82377 26.09967 35136 ft 465 kts 163°
2026-05-07 08:20 37.76271 26.12721 35134 ft 466 kts 163°
2026-05-07 08:20 37.70174 26.15459 35129 ft 466 kts 163°
2026-05-07 08:21 37.64062 26.18192 35132 ft 467 kts 163°
2026-05-07 08:21 37.57952 26.20933 35138 ft 468 kts 163°
2026-05-07 08:22 37.51789 26.23696 35137 ft 469 kts 163°
2026-05-07 08:22 37.45683 26.26429 35139 ft 470 kts 163°
2026-05-07 08:23 37.39496 26.29194 35139 ft 470 kts 163°
2026-05-07 08:23 37.33362 26.31935 35138 ft 469 kts 163°
2026-05-07 08:24 37.27202 26.34684 35134 ft 471 kts 163°
2026-05-07 08:24 37.21022 26.37431 35139 ft 471 kts 163°
2026-05-07 08:25 37.14855 26.40158 35136 ft 472 kts 163°
2026-05-07 08:25 37.08669 26.42895 35137 ft 471 kts 163°
2026-05-07 08:26 36.99431 26.46988 35139 ft 471 kts 163°
2026-05-07 08:26 36.93254 26.49725 35140 ft 472 kts 163°
2026-05-07 08:27 36.87026 26.52459 35140 ft 473 kts 163°
2026-05-07 08:27 36.80819 26.55158 35140 ft 473 kts 163°
2026-05-07 08:28 36.74587 26.57875 35142 ft 474 kts 163°
2026-05-07 08:28 36.68361 26.60597 35142 ft 476 kts 163°
2026-05-07 08:29 36.62088 26.63342 35141 ft 477 kts 163°
2026-05-07 08:29 36.55857 26.66067 35142 ft 477 kts 164°
2026-05-07 08:30 36.49565 26.68833 35144 ft 478 kts 163°
2026-05-07 08:30 36.43324 26.71563 35142 ft 476 kts 163°
2026-05-07 08:31 36.37049 26.74286 35142 ft 478 kts 164°
2026-05-07 08:31 36.30802 26.76982 35143 ft 478 kts 163°
2026-05-07 08:32 36.24486 26.79704 35143 ft 479 kts 164°
2026-05-07 08:32 36.18188 26.82423 35146 ft 480 kts 164°
2026-05-07 08:33 36.11893 26.85137 35140 ft 480 kts 164°
2026-05-07 08:33 36.05633 26.87832 35144 ft 479 kts 164°
2026-05-07 08:34 35.99311 26.90548 35143 ft 480 kts 164°
2026-05-07 08:34 35.92999 26.93257 35131 ft 479 kts 163°
2026-05-07 08:35 35.86730 26.95939 35143 ft 481 kts 163°
2026-05-07 08:35 35.80409 26.98626 35135 ft 480 kts 164°
2026-05-07 08:36 35.74081 27.01273 35141 ft 480 kts 164°
2026-05-07 08:36 35.67770 27.03925 35138 ft 480 kts 164°
2026-05-07 08:37 35.61422 27.06588 35146 ft 483 kts 164°
2026-05-07 08:37 35.55064 27.09258 35148 ft 484 kts 163°
2026-05-07 08:38 35.48709 27.11962 35146 ft 484 kts 162°
2026-05-07 08:38 35.42589 27.15351 35146 ft 486 kts 153°
2026-05-07 08:39 35.36828 27.19732 35151 ft 488 kts 145°
2026-05-07 08:39 35.31469 27.24845 35154 ft 488 kts 141°
2026-05-07 08:40 35.26186 27.30002 35149 ft 489 kts 142°
2026-05-07 08:40 35.20829 27.35173 35151 ft 490 kts 141°
2026-05-07 08:41 35.15503 27.40301 35145 ft 488 kts 142°
2026-05-07 08:41 35.10164 27.45425 35148 ft 490 kts 142°
2026-05-07 08:42 35.04826 27.50530 35149 ft 490 kts 141°
2026-05-07 08:42 34.99445 27.55635 35148 ft 490 kts 141°
2026-05-07 08:43 34.94095 27.60706 35150 ft 489 kts 141°
2026-05-07 08:43 34.88716 27.65797 35141 ft 491 kts 142°
2026-05-07 08:44 34.83328 27.70894 35148 ft 489 kts 142°
2026-05-07 08:44 34.77909 27.76012 35145 ft 491 kts 142°
2026-05-07 08:45 34.72543 27.81077 35151 ft 491 kts 142°
2026-05-07 08:45 34.67140 27.86162 35149 ft 491 kts 142°
2026-05-07 08:46 34.61731 27.91249 35146 ft 492 kts 143°
2026-05-07 08:46 34.56340 27.96304 35148 ft 491 kts 142°
2026-05-07 08:47 34.50913 28.01385 35155 ft 492 kts 142°
2026-05-07 08:47 34.45513 28.06432 35147 ft 494 kts 142°
2026-05-07 08:48 34.40079 28.11508 35159 ft 494 kts 142°
2026-05-07 08:48 34.34644 28.16571 35162 ft 493 kts 142°
2026-05-07 08:49 34.29202 28.21636 35159 ft 492 kts 142°
2026-05-07 08:49 34.23803 28.26649 35155 ft 492 kts 142°
2026-05-07 08:50 34.18360 28.31698 35162 ft 491 kts 142°
2026-05-07 08:50 34.12948 28.36711 35170 ft 493 kts 142°
2026-05-07 08:51 34.10226 28.39229 35358 ft 495 kts 142°
2026-05-07 08:51 34.07506 28.41744 35662 ft 494 kts 142°
2026-05-07 08:51 34.04799 28.44245 36002 ft 493 kts 142°
2026-05-07 08:51 34.02081 28.46752 36316 ft 491 kts 142°
2026-05-07 08:52 33.99368 28.49252 36560 ft 491 kts 142°
2026-05-07 08:52 33.96635 28.51769 36726 ft 493 kts 142°
2026-05-07 08:52 33.93928 28.54258 36904 ft 495 kts 141°
2026-05-07 08:52 33.91189 28.56777 37128 ft 495 kts 142°
2026-05-07 08:53 33.85704 28.61799 37160 ft 496 kts 142°
2026-05-07 08:53 33.80258 28.66795 37176 ft 495 kts 141°
2026-05-07 08:54 33.74821 28.71801 37165 ft 494 kts 142°
2026-05-07 08:54 33.69472 28.77032 37173 ft 492 kts 136°
2026-05-07 08:55 33.64491 28.82610 37175 ft 493 kts 135°
2026-05-07 08:55 33.59522 28.88201 37172 ft 488 kts 135°
2026-05-07 08:56 33.54549 28.93791 37173 ft 489 kts 135°
2026-05-07 08:56 33.49621 28.99301 37167 ft 489 kts 135°
2026-05-07 08:57 33.44641 29.04869 37174 ft 488 kts 135°
2026-05-07 08:57 33.39719 29.10358 37170 ft 486 kts 135°
2026-05-07 08:58 33.34757 29.15876 37171 ft 487 kts 135°
2026-05-07 08:58 33.29819 29.21369 37163 ft 484 kts 136°
2026-05-07 08:59 33.24906 29.26815 37170 ft 483 kts 135°
2026-05-07 08:59 33.19913 29.32348 37160 ft 482 kts 135°
2026-05-07 09:00 33.15034 29.37746 37160 ft 483 kts 136°
2026-05-07 09:00 33.10126 29.43162 37162 ft 482 kts 136°
2026-05-07 09:01 33.05207 29.48590 37166 ft 481 kts 136°
2026-05-07 09:01 33.00281 29.54003 37164 ft 481 kts 136°
2026-05-07 09:02 32.95387 29.59384 37189 ft 479 kts 136°
2026-05-07 09:02 32.90490 29.64754 37044 ft 478 kts 136°
2026-05-07 09:03 32.85469 29.70256 37155 ft 478 kts 137°
2026-05-07 09:03 32.80583 29.75596 37176 ft 478 kts 137°
2026-05-07 09:04 32.75700 29.80927 37181 ft 477 kts 137°
2026-05-07 09:04 32.70806 29.86264 37174 ft 475 kts 137°
2026-05-07 09:05 32.65934 29.91569 37179 ft 474 kts 137°
2026-05-07 09:05 32.61079 29.96850 37177 ft 474 kts 138°
2026-05-07 09:06 32.56241 30.02107 37173 ft 476 kts 137°
2026-05-07 09:06 32.51353 30.07411 37164 ft 477 kts 137°
2026-05-07 09:07 32.46440 30.12712 37158 ft 477 kts 138°
2026-05-07 09:07 32.41569 30.17940 37151 ft 476 kts 138°
2026-05-07 09:08 32.36669 30.23207 37148 ft 476 kts 138°
2026-05-07 09:08 32.31782 30.28455 37148 ft 476 kts 137°
2026-05-07 09:09 32.26868 30.33726 37141 ft 477 kts 137°
2026-05-07 09:09 32.21946 30.39001 37148 ft 476 kts 137°
2026-05-07 09:10 32.17056 30.44234 37146 ft 476 kts 138°
2026-05-07 09:10 32.12160 30.49463 37150 ft 475 kts 138°
2026-05-07 09:11 32.07255 30.54694 37143 ft 475 kts 138°
2026-05-07 09:11 32.02368 30.59899 37140 ft 474 kts 138°
2026-05-07 09:12 31.97463 30.65114 36751 ft 473 kts 139°
2026-05-07 09:12 31.95056 30.67682 36458 ft 469 kts 138°
2026-05-07 09:12 31.92647 30.70256 36185 ft 465 kts 139°
2026-05-07 09:13 31.90262 30.72799 35942 ft 461 kts 139°
2026-05-07 09:13 31.88165 30.75023 35740 ft 460 kts 139°
2026-05-07 09:13 31.85797 30.77519 35520 ft 459 kts 139°
2026-05-07 09:13 31.83411 30.80034 35305 ft 458 kts 139°
2026-05-07 09:14 31.81039 30.82535 35086 ft 457 kts 139°
2026-05-07 09:14 31.78691 30.85013 34852 ft 457 kts 139°
2026-05-07 09:14 31.76322 30.87514 34544 ft 457 kts 139°
2026-05-07 09:14 31.73942 30.90026 34103 ft 459 kts 139°
2026-05-07 09:15 31.71575 30.92522 33520 ft 458 kts 139°
2026-05-07 09:15 31.69223 30.95001 32914 ft 459 kts 139°
2026-05-07 09:15 31.66862 30.97490 32307 ft 458 kts 139°
2026-05-07 09:15 31.64498 30.99983 31712 ft 457 kts 139°
2026-05-07 09:16 31.62128 31.02480 31111 ft 457 kts 139°
2026-05-07 09:16 31.59761 31.04971 30548 ft 456 kts 139°
2026-05-07 09:16 31.57409 31.07441 29985 ft 457 kts 139°
2026-05-07 09:16 31.54996 31.09828 29326 ft 456 kts 146°
2026-05-07 09:17 31.52239 31.11701 28596 ft 455 kts 157°
2026-05-07 09:17 31.49288 31.12895 27769 ft 455 kts 168°
2026-05-07 09:17 31.46167 31.13564 27024 ft 454 kts 172°
2026-05-07 09:17 31.43060 31.14118 26445 ft 451 kts 172°
2026-05-07 09:18 31.39983 31.14660 25891 ft 447 kts 172°
2026-05-07 09:18 31.36885 31.15216 25345 ft 443 kts 172°
2026-05-07 09:18 31.33859 31.15774 24820 ft 440 kts 172°
2026-05-07 09:18 31.30870 31.16332 24290 ft 436 kts 171°
2026-05-07 09:19 31.27885 31.16892 23763 ft 433 kts 171°
2026-05-07 09:19 31.24893 31.17454 23246 ft 430 kts 171°
2026-05-07 09:19 31.21974 31.17997 22710 ft 428 kts 171°
2026-05-07 09:19 31.19028 31.18542 22197 ft 425 kts 171°
2026-05-07 09:20 31.16122 31.19081 21686 ft 423 kts 171°
2026-05-07 09:20 31.13238 31.19616 21169 ft 420 kts 171°
2026-05-07 09:20 31.10349 31.20153 20646 ft 418 kts 171°
2026-05-07 09:20 31.07487 31.20686 20148 ft 415 kts 171°
2026-05-07 09:21 31.04600 31.21224 19628 ft 413 kts 171°
2026-05-07 09:21 31.01766 31.21750 19110 ft 411 kts 171°
2026-05-07 09:21 30.98967 31.22270 18593 ft 409 kts 172°
2026-05-07 09:21 30.96155 31.22792 18097 ft 407 kts 172°
2026-05-07 09:22 30.93369 31.23310 17595 ft 405 kts 172°
2026-05-07 09:22 30.90591 31.23825 17099 ft 403 kts 172°
2026-05-07 09:22 30.87852 31.24332 16617 ft 400 kts 172°
2026-05-07 09:22 30.85087 31.24841 16129 ft 398 kts 172°
2026-05-07 09:23 30.82376 31.25341 15645 ft 395 kts 172°
2026-05-07 09:23 30.79660 31.25841 15176 ft 392 kts 172°
2026-05-07 09:23 30.76995 31.26335 14707 ft 389 kts 172°
2026-05-07 09:23 30.74310 31.26832 14218 ft 386 kts 172°
2026-05-07 09:24 30.71688 31.27318 13759 ft 384 kts 172°
2026-05-07 09:24 30.69046 31.27807 13283 ft 381 kts 172°
2026-05-07 09:24 30.66451 31.28286 12814 ft 378 kts 172°
2026-05-07 09:24 30.63853 31.28765 12340 ft 376 kts 172°
2026-05-07 09:25 30.61274 31.29240 11849 ft 374 kts 171°
2026-05-07 09:25 30.58689 31.29717 11359 ft 372 kts 171°
2026-05-07 09:25 30.56148 31.30186 10888 ft 370 kts 171°
2026-05-07 09:25 30.53602 31.30657 10502 ft 364 kts 171°
2026-05-07 09:26 30.51158 31.31108 10369 ft 350 kts 171°
2026-05-07 09:26 30.48794 31.31543 10260 ft 336 kts 171°
2026-05-07 09:26 30.46520 31.31961 10180 ft 322 kts 171°
2026-05-07 09:26 30.44366 31.32355 10107 ft 308 kts 171°
2026-05-07 09:27 30.42245 31.32742 9809 ft 305 kts 171°
2026-05-07 09:27 30.40156 31.33123 9473 ft 303 kts 171°
2026-05-07 09:27 30.36006 31.33777 8777 ft 300 kts 182°
2026-05-07 09:28 30.33995 31.33208 8334 ft 299 kts 207°
2026-05-07 09:28 30.32201 31.32023 7986 ft 296 kts 213°
2026-05-07 09:28 30.30493 31.30743 7593 ft 295 kts 214°
2026-05-07 09:28 30.28768 31.29414 7206 ft 294 kts 215°
2026-05-07 09:29 30.27063 31.28086 6837 ft 293 kts 215°
2026-05-07 09:29 30.25392 31.26776 6473 ft 291 kts 215°
2026-05-07 09:29 30.23712 31.25453 6099 ft 290 kts 215°
2026-05-07 09:29 30.22057 31.24145 5736 ft 289 kts 215°
2026-05-07 09:30 30.20384 31.22819 5390 ft 288 kts 215°
2026-05-07 09:30 30.18755 31.21522 5030 ft 286 kts 215°
2026-05-07 09:30 30.17102 31.20203 4657 ft 285 kts 215°
2026-05-07 09:30 30.15482 31.18907 4295 ft 284 kts 215°
2026-05-07 09:31 30.13861 31.17612 3928 ft 283 kts 215°
2026-05-07 09:31 30.12238 31.16317 3547 ft 283 kts 215°
2026-05-07 09:31 30.10619 31.15026 3179 ft 282 kts 215°
2026-05-07 09:31 30.09011 31.13743 2977 ft 274 kts 215°
2026-05-07 09:32 30.07491 31.12531 2970 ft 258 kts 215°
2026-05-07 09:32 30.06029 31.11390 2963 ft 248 kts 209°
2026-05-07 09:32 30.04415 31.10822 2960 ft 244 kts 178°
2026-05-07 09:32 30.02739 31.11171 2966 ft 242 kts 159°
2026-05-07 09:33 30.01194 31.11902 2953 ft 238 kts 141°
2026-05-07 09:33 30.00130 31.13282 2961 ft 228 kts 113°
2026-05-07 09:33 29.99552 31.14981 2947 ft 224 kts 95°
2026-05-07 09:33 29.99430 31.16761 2956 ft 222 kts 86°
2026-05-07 09:34 29.99394 31.18527 2952 ft 224 kts 92°
2026-05-07 09:34 29.99173 31.20312 2846 ft 221 kts 95°
2026-05-07 09:34 29.98917 31.22039 2672 ft 215 kts 95°
2026-05-07 09:34 29.98680 31.23692 2661 ft 206 kts 94°
2026-05-07 09:35 29.98469 31.25274 2640 ft 191 kts 90°
2026-05-07 09:35 29.98584 31.26716 2622 ft 171 kts 66°
2026-05-07 09:35 29.99150 31.27860 2635 ft 161 kts 49°
2026-05-07 09:35 29.99900 31.28864 2666 ft 170 kts 46°
2026-05-07 09:36 30.00699 31.29886 2668 ft 172 kts 46°
2026-05-07 09:36 30.01494 31.30918 2735 ft 173 kts 47°
2026-05-07 09:36 30.02278 31.31958 2592 ft 168 kts 47°
2026-05-07 09:36 30.03027 31.32962 2343 ft 161 kts 47°
2026-05-07 09:37 30.03725 31.33902 2132 ft 150 kts 47°
2026-05-07 09:37 30.04390 31.34793 1921 ft 141 kts 46°
2026-05-07 09:37 30.05018 31.35633 1731 ft 136 kts 46°
2026-05-07 09:37 30.05642 31.36466 1570 ft 136 kts 46°
2026-05-07 09:38 30.06255 31.37286 1404 ft 136 kts 45°
2026-05-07 09:38 30.06878 31.38117 1236 ft 135 kts 46°
2026-05-07 09:38 30.07493 31.38942 1059 ft 135 kts 45°
2026-05-07 09:38 30.08103 31.39756 886 ft 134 kts 46°
2026-05-07 09:39 30.08723 31.40585 706 ft 134 kts 45°
2026-05-07 09:39 30.09333 31.41404 529 ft 134 kts 45°
2026-05-07 09:39 30.09935 31.42215 400 ft 133 kts 44°
2026-05-07 09:39 30.10494 31.42928 388 ft 98 kts 51°
2026-05-07 09:40 30.10873 31.43425 388 ft 59 kts 38°
2026-05-07 09:40 30.11169 31.43597 388 ft 26 kts 13°
2026-05-07 09:40 30.11250 31.43495 388 ft 17 kts 252°
2026-05-07 09:40 30.11279 31.43390 388 ft 13 kts 323°
2026-05-07 09:41 30.11351 31.43319 388 ft 13 kts 318°
2026-05-07 09:41 30.11424 31.43246 388 ft 13 kts 319°
2026-05-07 09:41 30.11498 31.43172 388 ft 14 kts 320°
2026-05-07 09:41 30.11575 31.43096 388 ft 14 kts 319°
2026-05-07 09:42 30.11653 31.43018 387 ft 14 kts 319°
2026-05-07 09:42 30.11732 31.42939 387 ft 15 kts 319°
2026-05-07 09:42 30.11817 31.42854 387 ft 17 kts 319°
2026-05-07 09:42 30.11914 31.42759 387 ft 18 kts 319°
2026-05-07 09:43 30.12007 31.42665 387 ft 17 kts 321°
2026-05-07 09:43 30.12101 31.42573 387 ft 17 kts 320°
2026-05-07 09:43 30.12191 31.42479 387 ft 17 kts 302°
2026-05-07 09:43 30.12178 31.42366 387 ft 13 kts 231°
2026-05-07 09:44 30.12113 31.42281 387 ft 14 kts 229°
2026-05-07 09:44 30.12047 31.42193 387 ft 14 kts 229°
2026-05-07 09:44 30.11979 31.42102 387 ft 15 kts 228°
2026-05-07 09:44 30.11909 31.42010 387 ft 15 kts 229°
2026-05-07 09:45 30.11838 31.41913 387 ft 15 kts 230°
2026-05-07 09:45 30.11766 31.41817 387 ft 15 kts 228°
2026-05-07 09:45 30.11695 31.41723 387 ft 15 kts 229°
2026-05-07 09:45 30.11623 31.41626 387 ft 16 kts 228°
2026-05-07 09:46 30.11550 31.41529 387 ft 16 kts 230°
2026-05-07 09:46 30.11558 31.41432 387 ft 14 kts 337°
2026-05-07 09:46 30.11655 31.41398 387 ft 14 kts 345°
2026-05-07 09:46 30.11741 31.41367 387 ft 11 kts 340°
2026-05-07 09:47 30.11816 31.41339 386 ft 11 kts 342°
2026-05-07 09:47 30.11888 31.41313 386 ft 10 kts 343°
2026-05-07 09:47 30.11958 31.41288 386 ft 10 kts 343°
2026-05-07 09:47 30.12027 31.41262 386 ft 11 kts 342°
2026-05-07 09:48 30.12118 31.41229 386 ft 15 kts 342°
2026-05-07 09:48 30.12229 31.41189 386 ft 16 kts 342°
2026-05-07 09:48 30.12332 31.41153 386 ft 14 kts 341°
2026-05-07 09:48 30.12438 31.41114 386 ft 17 kts 341°
2026-05-07 09:49 30.12548 31.41073 386 ft 15 kts 342°
2026-05-07 09:49 30.12650 31.41037 386 ft 14 kts 342°
2026-05-07 09:49 30.12743 31.41004 386 ft 12 kts 342°
2026-05-07 09:49 30.12826 31.40973 386 ft 12 kts 341°
2026-05-07 09:50 30.12905 31.40944 386 ft 11 kts 342°
2026-05-07 09:50 30.12983 31.40916 386 ft 11 kts 341°
2026-05-07 09:50 30.13044 31.40867 386 ft 10 kts 308°
2026-05-07 09:50 30.13082 31.40788 386 ft 11 kts 296°
2026-05-07 09:51 30.13115 31.40710 386 ft 10 kts 296°
2026-05-07 09:51 30.13147 31.40637 385 ft 11 kts 298°
2026-05-07 09:51 30.13190 31.40540 385 ft 16 kts 294°
2026-05-07 09:51 30.13236 31.40403 385 ft 17 kts 287°
2026-05-07 09:52 30.13267 31.40271 385 ft 16 kts 283°
2026-05-07 09:52 30.13286 31.40148 385 ft 14 kts 271°
2026-05-07 09:52 30.13246 31.40053 385 ft 13 kts 229°
2026-05-07 09:52 30.13185 31.39972 385 ft 14 kts 228°
2026-05-07 09:53 30.13137 31.39916 385 ft 5 kts 193°
2026-05-07 09:53 30.13104 31.39931 385 ft 5 kts 137°
2026-05-07 09:53 30.13077 31.39960 385 ft 5 kts 137°
2026-05-07 09:53 30.13024 31.40016 385 ft 13 kts 137°
2026-05-07 09:54 30.12973 31.40071 385 ft 3 kts 133°
2026-05-07 09:54 30.12965 31.40081 385 ft 1 kts 131°
2026-05-07 09:54 30.12953 31.40101 385 ft 5 kts 116°
2026-05-07 09:54 30.12952 31.40149 385 ft 4 kts 60°
2026-05-07 09:55 30.12966 31.40162 385 ft 1 kts 28°
2026-05-07 09:55 30.12974 31.40166 385 ft 1 kts 17°
2026-05-07 09:55 30.12977 31.40167 385 ft 1 kts 15°
2026-05-07 09:56 30.12980 31.40168 385 ft 1 kts 17°
2026-05-07 09:56 30.12982 31.40168 385 ft 0 kts 14°